TimeEST,TemperatureF,Dew PointF,Humidity,Sea Level PressureIn,VisibilityMPH,Wind Direction,Wind SpeedMPH,Gust SpeedMPH,PrecipitationIn,Events,Conditions,WindDirDegrees,DateUTC
3:58 AM,46.2,28.2,50,30.23,10.0,NE,8.1,18.4,N/A,,Overcast,50,2013-02-22 08:58:00
4:58 AM,45.9,26.8,47,30.22,10.0,ENE,8.1,-,N/A,,Overcast,60,2013-02-22 09:58:00
5:58 AM,46.0,27.5,48,30.21,10.0,ENE,11.5,-,N/A,,Overcast,60,2013-02-22 10:58:00
6:18 AM,46.4,26.6,46,30.20,7.0,ENE,12.7,19.6,N/A,Rain,Light Rain,70,2013-02-22 11:18:00
6:58 AM,41.7,31.8,68,30.20,3.0,East,10.4,-,0.02,Rain,Light Rain,80,2013-02-22 11:58:00
7:58 AM,39.4,35.1,84,30.22,5.0,East,6.9,-,0.08,Rain,Light Rain,80,2013-02-22 12:58:00
8:58 AM,39.2,36.3,89,30.22,4.0,East,11.5,-,0.08,Rain,Light Rain,90,2013-02-22 13:58:00
9:21 AM,39.2,35.6,87,30.20,7.0,East,12.7,19.6,N/A,,Overcast,80,2013-02-22 14:21:00
9:27 AM,39.2,35.6,87,30.19,7.0,East,10.4,19.6,N/A,,Light Drizzle,80,2013-02-22 14:27:00
9:37 AM,39.2,35.6,87,30.20,10.0,East,10.4,-,N/A,,Overcast,80,2013-02-22 14:37:00
9:58 AM,39.9,36.1,86,30.22,10.0,ENE,12.7,-,0.00,,Overcast,70,2013-02-22 14:58:00
10:33 AM,39.2,35.6,87,30.22,7.0,East,6.9,-,N/A,Rain,Light Rain,80,2013-02-22 15:33:00
10:46 AM,39.2,37.4,93,30.21,7.0,ENE,8.1,-,N/A,,Overcast,70,2013-02-22 15:46:00
10:58 AM,40.1,36.5,87,30.23,7.0,ENE,6.9,-,0.00,,Overcast,60,2013-02-22 15:58:00
11:58 AM,39.9,36.7,88,30.21,10.0,ENE,5.8,-,N/A,,Overcast,60,2013-02-22 16:58:00
12:13 PM,39.2,37.4,93,30.21,10.0,NE,6.9,-,N/A,,Overcast,40,2013-02-22 17:13:00
12:35 PM,39.2,37.4,93,30.21,5.0,Variable,3.5,-,N/A,Rain,Light Rain,0,2013-02-22 17:35:00
12:58 PM,39.4,37.0,91,30.18,4.0,NE,4.6,-,0.01,Rain,Light Rain,40,2013-02-22 17:58:00
1:06 PM,39.2,37.4,93,30.18,4.0,NE,6.9,-,N/A,Rain,Light Rain,40,2013-02-22 18:06:00
1:19 PM,39.2,37.4,93,30.18,3.0,NE,5.8,-,N/A,Rain,Light Rain,40,2013-02-22 18:19:00
1:30 PM,39.2,37.4,93,30.16,5.0,NE,8.1,-,N/A,,Light Drizzle,50,2013-02-22 18:30:00
1:43 PM,39.2,37.4,93,30.17,2.0,Variable,5.8,-,N/A,Rain,Light Rain,0,2013-02-22 18:43:00
1:53 PM,39.2,37.4,93,30.16,-9999.0,Variable,4.6,-,N/A,,Overcast,0,2013-02-22 18:53:00
1:58 PM,39.4,37.6,93,30.17,5.0,NE,5.8,-,0.01,,Light Drizzle,50,2013-02-22 18:58:00
2:07 PM,39.2,37.4,93,30.16,5.0,Variable,1.2,-,N/A,,Light Drizzle,0,2013-02-22 19:07:00
2:18 PM,39.2,37.4,93,30.15,5.0,Variable,4.6,-,N/A,,Overcast,0,2013-02-22 19:18:00
2:33 PM,39.2,37.4,93,30.16,4.0,NNE,4.6,-,N/A,,Light Drizzle,30,2013-02-22 19:33:00
2:43 PM,39.2,37.4,93,30.16,1.8,NNE,4.6,-,N/A,Rain,Light Rain,20,2013-02-22 19:43:00
2:51 PM,39.2,37.4,93,30.15,2.0,Variable,5.8,-,N/A,Rain,Light Rain,0,2013-02-22 19:51:00
2:58 PM,39.9,38.3,94,30.16,3.0,NNE,8.1,-,0.01,,Light Drizzle,30,2013-02-22 19:58:00
3:35 PM,39.2,39.2,100,30.15,3.0,NE,4.6,-,N/A,,Overcast,40,2013-02-22 20:35:00
3:58 PM,39.7,38.3,95,30.17,3.0,North,4.6,-,0.00,Rain,Light Rain,350,2013-02-22 20:58:00
4:33 PM,39.2,37.4,93,30.15,2.5,NNE,3.5,-,N/A,,Light Drizzle,20,2013-02-22 21:33:00
4:46 PM,39.2,39.2,100,30.14,2.5,NE,6.9,-,N/A,,Light Drizzle,40,2013-02-22 21:46:00
4:58 PM,39.4,38.3,96,30.15,3.0,NE,5.8,-,0.04,,Light Drizzle,40,2013-02-22 21:58:00
5:03 PM,39.2,39.2,100,30.14,3.0,NNE,4.6,-,N/A,,Light Drizzle,30,2013-02-22 22:03:00
5:37 PM,39.2,39.2,100,30.13,8.0,NNE,6.9,-,N/A,,Overcast,30,2013-02-22 22:37:00
5:55 PM,39.2,39.2,100,30.15,5.0,North,3.5,-,N/A,,Overcast,10,2013-02-22 22:55:00
6:00 PM,39.2,39.2,100,30.14,10.0,North,3.5,-,N/A,,Overcast,10,2013-02-22 23:00:00
6:31 PM,39.2,37.4,93,30.14,3.0,NE,6.9,-,N/A,,Overcast,40,2013-02-22 23:31:00
6:56 PM,38.8,37.9,97,30.14,5.0,NNE,8.1,-,N/A,,Overcast,30,2013-02-22 23:56:00
7:58 PM,39.2,37.4,93,30.14,3.0,NE,6.9,-,N/A,,Light Drizzle,50,2013-02-23 00:58:00
8:08 PM,39.2,37.4,93,30.13,6.0,NE,8.1,-,N/A,,Overcast,50,2013-02-23 01:08:00
8:58 PM,38.8,38.3,98,30.17,3.0,NNE,3.5,-,0.00,,Overcast,20,2013-02-23 01:58:00
9:13 PM,39.2,39.2,100,30.15,4.0,NNE,5.8,-,N/A,,Overcast,20,2013-02-23 02:13:00
9:17 PM,39.2,39.2,100,30.14,3.0,NNE,5.8,-,N/A,,Light Drizzle,30,2013-02-23 02:17:00
9:27 PM,39.2,39.2,100,30.14,3.0,North,3.5,-,N/A,,Overcast,10,2013-02-23 02:27:00
9:32 PM,39.2,39.2,100,30.14,3.0,North,3.5,-,N/A,,Overcast,10,2013-02-23 02:32:00
9:37 PM,39.2,39.2,100,30.14,2.5,North,4.6,-,N/A,,Overcast,10,2013-02-23 02:37:00
9:47 PM,39.2,39.2,100,30.15,3.0,NNE,3.5,-,N/A,,Overcast,30,2013-02-23 02:47:00
9:58 PM,38.8,38.7,99,30.16,2.5,NE,3.5,-,0.00,,Overcast,40,2013-02-23 02:58:00
10:38 PM,39.2,39.2,100,30.14,3.0,North,6.9,-,N/A,,Overcast,360,2013-02-23 03:38:00
10:48 PM,39.2,39.2,100,30.14,2.5,North,4.6,-,N/A,,Overcast,360,2013-02-23 03:48:00
10:58 PM,38.8,38.7,99,30.14,2.0,Variable,3.5,-,N/A,,Overcast,0,2013-02-23 03:58:00
11:58 PM,38.3,37.9,99,30.12,3.0,NNE,4.6,-,0.01,,Overcast,30,2013-02-23 04:58:00